Regional Weather Roundup
Issued by NWS

Home | Current Version | Previous Version | Text Only | Print | Product List | Glossary Off
Versions: 1 2 3 4 5 6 7 8 9 10 11 12 13 14 15 16 17 18 19 20 21 22 23 24 25 26 27 28 29 30 31 32 33 34 35 36 37 38 39 40 41 42 43 44 45 46 47 48 49 50

000
ASUS43 KIND 310409
RWRIN

WEATHER ROUNDUP FOR INDIANA
NATIONAL WEATHER SERVICE INDIANAPOLIS IN
1200 AM EDT SUN JUL 31 2016

NOTE: "FAIR" INDICATES FEW OR NO CLOUDS BELOW 12,000 FEET WITH NO
SIGNIFICANT WEATHER AND/OR OBSTRUCTIONS TO VISIBILITY.

* - STATION DOES NOT REPORT WEATHER SUCH AS PRECIPITATION OR FOG.

+ - STATION NOT QUALITY CONTROLLED BY THE NATIONAL WEATHER SERVICE.
    USE DATA WITH CAUTION...ESPECIALLY DEWPOINT AND RELATIVE
    HUMIDITY OBSERVATIONS.

INZ001>003-010>013-019-020-310500-
NORTHWEST INDIANA

CITY           SKY/WX    TMP DP  RH WIND       PRES   REMARKS
GARY /AIRPORT/ PTCLDY    73  69  88 NE7       30.01R
KNOX *+        MOCLDY    64  63  94 N5        29.99S
LA PORTE +     CLEAR     69  69 100 CALM      30.01R
MICHIGAN CITY+ CLEAR     64  64 100 CALM      30.01R
MONTICELLO +   PTCLDY    68  64  88 NW3       29.98S
RENSSELAER +   CLEAR     66  64  94 CALM      29.99S
VALPARAISO     CLEAR     67  65  93 CALM      30.01R

$$

LMZ046-743>745-310500-
SOUTHERN LAKE MICHIGAN

STATION/POSITION TIME  TEMP    WIND        PRES    WAVE
                       AIR SEA DIR/SP/G            HT
                 (UTC) (F)     (DEG/KT/KT) (MB)    (FT)
BURNS HARBOR     0301   70      40/ 12/ 15 1016.3R
MICHIGAN CITY    0300   67      40/ 12/ 12   N/A
5NW MICH CITY    0400   70 70   70/  8/ 12   N/A     2

$$

INZ004-005-014>016-021>024-310500-
NORTH CENTRAL INDIANA

CITY           SKY/WX    TMP DP  RH WIND       PRES   REMARKS
GOSHEN         CLOUDY    70  66  87 NE5       30.00R
LOGANSPORT +   CLOUDY    68  66  94 CALM      29.99R
PERU/GRISSOM   PTCLDY    69  69 100 SE1       29.97S
ROCHESTER +    PTCLDY    72  72 100 CALM      30.00R
SOUTH BEND     CLEAR     67  65  93 NE5       30.00S
WARSAW +       MOCLDY    70  68  94 NE6       30.00R

$$

INZ006>009-017-018-025>027-310500-
NORTHEAST INDIANA

CITY           SKY/WX    TMP DP  RH WIND       PRES   REMARKS
ANGOLA *+        N/A     70  61  73 NE5       30.00S
AUBURN +       MOCLDY    68  64  88 NE3       30.00S
FORT WAYNE     MOCLDY    71  67  87 E7        29.98S
HUNTINGTON +   CLOUDY    71  70  96 CALM      29.98R

$$

INZ028-029-035-036-043>045-051>053-310500-
WEST CENTRAL INDIANA

CITY           SKY/WX    TMP DP  RH WIND       PRES   REMARKS
CRAWFORDSVL +  CLEAR     64  64 100 CALM      29.98F
GREENCASTLE +  CLEAR     68  68 100 CALM      29.99S
LAFAYETTE      PTCLDY    70  67  90 N5        29.98R
TERRE HAUTE    CLEAR     69  66  90 CALM      29.98S

$$

INZ030>032-037>040-046>048-054>057-064-065-310500-
CENTRAL INDIANA

CITY           SKY/WX    TMP DP  RH WIND       PRES   REMARKS
INDIANAPOLIS   MOCLDY    75  66  73 CALM      29.98S
-EAGLE CREEK   CLOUDY    76  66  71 CALM      29.98R
KOKOMO *+      CLEAR     68  63  83 CALM      29.99S
MARION +       CLEAR     66  66  99 CALM      29.99S
MT COMFORT *+  CLEAR     66  64  94 CALM      29.99F
SHELBYVILLE    CLEAR     73  66  78 W3        29.98S
ZIONSVILLE +   PTCLDY    67  65  96 CALM      29.99S

$$

INZ033-034-041-042-049-050-058-059-310500-
EAST CENTRAL INDIANA

CITY           SKY/WX    TMP DP  RH WIND       PRES   REMARKS
MUNCIE         CLEAR     70  67  90 CALM      29.99S

$$

INZ060-061-067>069-081>083-085>088-310500-
SOUTHWEST INDIANA

CITY           SKY/WX    TMP DP  RH WIND       PRES   REMARKS
EVANSVILLE     CLEAR     74  70  87 CALM      29.99R
HUNTINGBURG *+ CLEAR     73  70  88 CALM      29.99R
WASHINGTON +   CLEAR     69  69 100 MISG      29.98R

$$

INZ062-063-066-070>080-084-089>092-310500-
SOUTH CENTRAL AND SOUTHEAST INDIANA

CITY           SKY/WX    TMP DP  RH WIND       PRES   REMARKS
BLOOMINGTON    CLEAR     68  65  90 CALM      29.99S
MADISON *+     CLEAR     72  70  94 CALM      30.02S
NORTH VERNON + CLEAR    N/A N/A N/A CALM      30.00R
SEYMOUR +      CLEAR     70  70 100 CALM      29.98S

$$




USA.gov is the U.S. government's official web portal to all federal, state and local government web resources and services.